"Timestamp","TZ","WindDir_Mean (deg)","WindSpd_Mean (km/h)","WindSpd_Min (km/h)","WindSpd_Max (km/h)","Temp_Mean (deg)","RH_Mean (%)","MSLP_Mean (hPa)","Rain_Acc (mm)","Rain_Intensity (mm/h)","Hail_Acc (hits/cm2)","Hail_Intensity (hits/cm2hr)","Solar_Mean (W/m2)"
2020/03/27 00:00:00.011,n,143,1.44,1.08,1.8,21.5,74,1020.92,0,0,0,0,0.030479
2020/03/27 00:01:00.000,n,175,5.4,4.68,6.12,21.5,73.5,1020.92,0,0,0,0,0.030479
2020/03/27 00:02:00.001,n,99,2.52,1.08,4.68,21.5,73.8,1020.92,0,0,0,0,0.03479
2020/03/27 00:03:00.000,n,161,5.04,3.96,6.12,21.5,73.4,1020.92,0,0,0,0,0.031357
2020/03/27 00:04:00.000,n,93,2.52,2.16,3.24,21.5,74.2,1020.92,0,0,0,0,0.031357
2020/03/27 00:05:00.000,n,131,3.96,1.8,4.68,21.5,73.7,1020.92,0,0,0,0,0.027847
2020/03/27 00:06:00.006,n,165,5.04,4.68,5.4,21.5,73.1,1020.92,0,0,0,0,0.027847
2020/03/27 00:07:00.004,n,149,2.52,1.8,2.88,21.5,73.4,1020.92,0,0,0,0,0.029564
2020/03/27 00:08:00.001,n,149,3.6,3.24,3.96,21.5,73.8,1020.92,0,0,0,0,0.029564
2020/03/27 00:09:00.016,n,142,5.4,5.4,6.12,21.5,73.5,1020.92,0,0,0,0,0.033073
2020/03/27 00:10:00.000,n,166,10.08,9.36,10.440002,21.5,73.3,1020.92,0,0,0,0,0.031357
2020/03/27 00:11:00.000,n,160,1.8,0.72,2.52,21.5,73.5,1020.92,0,0,0,0,0.025253
2020/03/27 00:12:00.000,n,116,2.16,1.8,2.52,21.5,73.7,1020.92,0,0,0,0,0.026131
2020/03/27 00:13:00.005,n,137,6.84,5.76,8.28,21.5,73.3,1020.92,0,0,0,0,0.02697
2020/03/27 00:14:00.002,n,110,3.6,2.52,5.4,21.5,73.1,1020.92,0,0,0,0,0.02697
2020/03/27 00:15:00.000,n,131,6.48,5.4,8.64,21.5,73.1,1020.92,0,0,0,0,0.029564
2020/03/27 00:16:00.000,n,144,5.4,4.32,5.76,21.5,73.3,1020.92,0,0,0,0,0.026131
2020/03/27 00:17:00.011,n,162,5.76,5.04,6.12,21.5,73,1020.92,0,0,0,0,0.033073
2020/03/27 00:18:00.008,n,117,6.12,5.76,6.84,21.5,73.3,1020.92,0,0,0,0,0.030479
2020/03/27 00:19:00.000,n,109,2.52,1.8,2.88,21.5,73.5,1020.92,0,0,0,0,0.029564
2020/03/27 00:20:00.002,n,133,4.32,2.16,5.76,21.5,72.9,1020.92,0,0,0,0,0.025253
2020/03/27 00:21:00.000,n,149,9.72,5.76,12.6,21.5,72.3,1020.92,0,0,0,0,0.031357
2020/03/27 00:22:00.000,n,150,6.84,6.48,7.56,21.6,72.2,1020.92,0,0,0,0,0.02697
2020/03/27 00:23:00.000,n,146,6.84,6.48,7.2,21.6,72.5,1021.02,0,0,0,0,0.02697
2020/03/27 00:24:00.008,n,147,8.28,6.84,9.72,21.6,72,1021.02,0,0,0,0,0.02697
2020/03/27 00:25:00.006,n,136,6.12,5.4,6.48,21.7,71.9,1021.02,0,0,0,0,0.027847
2020/03/27 00:26:00.003,n,153,6.48,6.12,7.56,21.7,71.9,1021.02,0,0,0,0,0.029564
2020/03/27 00:27:00.000,n,155,6.12,5.04,6.48,21.7,72.1,1021.02,0,0,0,0,0.025253
2020/03/27 00:28:00.000,n,116,4.32,3.24,6.12,21.7,71.9,1021.02,0,0,0,0,0.029564
2020/03/27 00:29:00.000,n,147,8.28,6.12,10.440002,21.7,71.7,1021.02,0,0,0,0,0.023499
2020/03/27 00:30:00.000,n,108,7.92,5.76,10.8,21.7,72.2,1021.02,0,0,0,0,0.022621
2020/03/27 00:31:00.004,n,116,3.96,3.24,4.32,21.7,72.5,1021.02,0,0,0,0,0.031357
2020/03/27 00:32:00.002,n,100,2.88,1.8,3.6,21.7,72.3,1021.02,0,0,0,0,0.026131
2020/03/27 00:33:00.000,n,148,12.96,11.16,15.48,21.7,71.4,1021.02,0,0,0,0,0.02697
2020/03/27 00:34:00.011,n,109,2.88,2.52,3.24,21.7,72.1,1021.02,0,0,0,0,0.028725
2020/03/27 00:35:00.009,n,76,1.44,0.72,3.6,21.7,72.3,1021.02,0,0,0,0,0.029564
2020/03/27 00:36:00.006,n,135,8.64,7.92,9.36,21.7,72.1,1021.02,0,0,0,0,0.02697
2020/03/27 00:37:00.000,n,132,5.04,4.68,6.12,21.7,72,1021.02,0,0,0,0,0.028725
2020/03/27 00:38:00.001,n,99,5.04,4.32,5.4,21.6,72,1021.02,0,0,0,0,0.030479
2020/03/27 00:39:00.000,n,141,17.28,14.76,18.359998,21.6,71.7,1021.02,0,0,0,0,0.027847
2020/03/27 00:40:00.000,n,132,4.32,1.8,6.12,21.6,71.7,1021.02,0,0,0,0,0.025253
2020/03/27 00:41:00.008,n,166,10.08,9,12.96,21.7,71.5,1021.02,0,0,0,0,0.025253
2020/03/27 00:42:00.008,n,158,10.8,9,12.24,21.7,71,1021.02,0,0,0,0,0.02697
2020/03/27 00:43:00.000,n,130,13.32,11.52,14.04,21.7,71,1021.02,0,0,0,0,0.027847
2020/03/27 00:44:00.013,n,135,2.52,1.8,3.24,21.7,71.5,1021.02,0,0,0,0,0.024376
2020/03/27 00:45:00.011,n,98,3.24,2.52,4.68,21.7,71.5,1021.12,0,0,0,0,0.027847
2020/03/27 00:46:00.000,n,139,10.08,8.64,11.52,21.7,71,1021.12,0,0,0,0,0.026131
2020/03/27 00:47:00.000,n,165,9,7.92,9.72,21.7,70.9,1021.12,0,0,0,0,0.025253
2020/03/27 00:48:00.000,n,152,12.96,10.8,14.04,21.7,70.9,1021.02,0,0,0,0,0.026131
2020/03/27 00:49:00.005,n,156,3.96,3.6,4.32,21.7,71.2,1021.02,0,0,0,0,0.026131
2020/03/27 00:50:00.002,n,155,5.4,4.32,6.12,21.7,71.2,1021.02,0,0,0,0,0.027847
2020/03/27 00:51:00.000,n,175,2.88,2.52,3.6,21.7,71.3,1021.02,0,0,0,0,0.023499
2020/03/27 00:52:00.000,n,158,11.88,10.08,13.32,21.7,71.2,1021.02,0,0,0,0,0.022621
2020/03/27 00:53:00.011,n,130,5.76,4.68,6.84,21.7,71.5,1021.02,0,0,0,0,0.02697
2020/03/27 00:54:00.010,n,85,5.04,4.32,6.12,21.7,71.8,1021.02,0,0,0,0,0.028725
2020/03/27 00:55:00.000,n,136,3.96,3.24,5.04,21.7,72,1021.02,0,0,0,0,0.023499
2020/03/27 00:56:00.000,n,129,4.68,4.32,5.04,21.7,71.4,1020.92,0,0,0,0,0.030479
2020/03/27 00:57:00.001,n,131,8.64,7.92,9.36,21.7,71.6,1021.02,0,0,0,0,0.024376
2020/03/27 00:58:00.000,n,142,10.440002,6.84,14.76,21.6,70.9,1020.92,0,0,0,0,0.030479
2020/03/27 00:59:00.000,n,149,11.52,8.28,13.68,21.6,70.6,1020.92,0,0,0,0,0.021782
2020/03/27 01:00:00.008,n,147,19.08,18,19.8,21.6,70.7,1020.92,0,0,0,0,0.027847
2020/03/27 01:01:00.005,n,118,10.08,7.2,12.96,21.6,70.7,1020.92,0,0,0,0,0.028725
2020/03/27 01:02:00.003,n,94,3.96,3.24,5.76,21.7,71.1,1020.92,0,0,0,0,0.027847
2020/03/27 01:03:00.016,n,142,4.68,0.36,6.48,21.7,70.7,1020.92,0,0,0,0,0.022621
2020/03/27 01:04:00.000,n,120,5.04,4.32,5.76,21.6,70.9,1020.92,0,0,0,0,0.030479
2020/03/27 01:05:00.000,n,134,6.12,5.76,6.84,21.6,71,1020.92,0,0,0,0,0.027847
2020/03/27 01:06:00.000,n,113,5.4,4.32,6.84,21.6,70.9,1020.92,0,0,0,0,0.025253
2020/03/27 01:07:00.005,n,107,9.36,8.28,10.08,21.6,70.9,1020.92,0,0,0,0,0.026131
2020/03/27 01:08:00.003,n,115,6.48,6.12,7.2,21.6,71,1020.92,0,0,0,0,0.025253
2020/03/27 01:09:00.000,n,139,2.16,0.36,3.24,21.6,70.9,1021.02,0,0,0,0,0.022621
2020/03/27 01:10:00.000,n,134,10.440002,9,11.52,21.6,70.8,1021.02,0,0,0,0,0.027847
2020/03/27 01:11:00.013,n,160,8.28,6.84,9.72,21.6,70.8,1021.02,0,0,0,0,0.023499
2020/03/27 01:12:00.011,n,173,10.8,9,11.52,21.6,70.5,1021.02,0,0,0,0,0.025253
2020/03/27 01:13:00.000,n,162,9.36,6.84,11.16,21.6,70.5,1021.02,0,0,0,0,0.025253
2020/03/27 01:14:00.000,n,121,7.56,5.76,10.8,21.6,70.4,1020.92,0,0,0,0,0.02697
2020/03/27 01:15:00.003,n,123,9.36,7.2,11.16,21.6,70.3,1020.92,0,0,0,0,0.02697
2020/03/27 01:16:00.005,n,135,5.04,2.88,7.2,21.6,70.7,1020.92,0,0,0,0,0.026131
2020/03/27 01:17:00.003,n,136,12.24,11.52,12.96,21.6,70.3,1020.92,0,0,0,0,0.027847
2020/03/27 01:18:00.000,n,143,15.12,14.4,16.2,21.6,70.3,1020.82,0,0,0,0,0.02697
2020/03/27 01:19:00.000,n,91,6.48,5.76,7.2,21.6,70.3,1020.92,0,0,0,0,0.029564
2020/03/27 01:20:00.013,n,105,3.24,2.52,4.32,21.6,70.6,1020.92,0,0,0,0,0.029564
2020/03/27 01:21:00.012,n,222,1.08,0.36,1.44,21.6,70.5,1020.92,0,0,0,0,0.028725
2020/03/27 01:22:00.000,n,141,7.92,7.2,8.28,21.6,70.5,1020.92,0,0,0,0,0.02697
2020/03/27 01:23:00.000,n,103,7.92,7.56,8.64,21.6,70.4,1020.82,0,0,0,0,0.028725
2020/03/27 01:24:00.000,n,160,3.96,3.24,5.04,21.6,70.6,1020.82,0,0,0,0,0.027847
2020/03/27 01:25:00.007,n,161,7.56,6.48,8.64,21.6,70.4,1020.82,0,0,0,0,0.026131
2020/03/27 01:26:00.005,n,117,5.4,2.88,6.84,21.6,70.6,1020.82,0,0,0,0,0.027847
2020/03/27 01:27:00.002,n,143,5.76,4.68,6.84,21.6,70.6,1020.82,0,0,0,0,0.02697
2020/03/27 01:28:00.000,n,171,9.72,7.56,11.16,21.6,70.5,1020.82,0,0,0,0,0.024376
2020/03/27 01:29:00.013,n,145,6.12,5.76,6.48,21.6,70.6,1020.82,0,0,0,0,0.026131
2020/03/27 01:30:00.011,n,133,4.68,4.32,5.76,21.6,70.6,1020.82,0,0,0,0,0.025253
2020/03/27 01:31:00.000,n,131,5.04,3.96,5.76,21.6,70.7,1020.82,0,0,0,0,0.024376
2020/03/27 01:32:00.000,n,165,12.96,12.24,13.68,21.6,70.4,1020.72,0,0,0,0,0.028725
2020/03/27 01:33:00.000,n,162,8.28,7.2,8.64,21.6,70.4,1020.72,0,0,0,0,0.027847
2020/03/27 01:34:00.000,n,129,6.48,5.4,7.56,21.6,70,1020.72,0,0,0,0,0.020905
2020/03/27 01:35:00.008,n,115,6.84,6.48,7.56,21.6,70.4,1020.72,0,0,0,0,0.023499
2020/03/27 01:36:00.006,n,158,6.84,1.8,7.56,21.6,70.4,1020.72,0,0,0,0,0.022621
2020/03/27 01:37:00.003,n,138,1.08,1.08,1.08,21.6,70.2,1020.72,0,0,0,0,0.023499
2020/03/27 01:38:00.001,n,296,1.08,0.36,1.44,21.6,71.3,1020.72,0,0,0,0,0.029564
2020/03/27 01:39:00.014,n,56,2.88,1.44,3.96,21.6,70.7,1020.72,0,0,0,0,0.028725
2020/03/27 01:40:00.000,n,120,3.24,1.44,4.32,21.6,69.7,1020.72,0,0,0,0,0.026131
2020/03/27 01:41:00.000,n,144,10.08,9,10.440002,21.6,69.8,1020.72,0,0,0,0,0.025253
2020/03/27 01:42:00.000,n,97,7.56,6.12,9.36,21.6,69.6,1020.72,0,0,0,0,0.027847
2020/03/27 01:43:00.004,n,121,4.32,2.52,5.76,21.6,69.9,1020.72,0,0,0,0,0.020905
2020/03/27 01:44:00.001,n,72,4.68,3.6,5.76,21.6,69.8,1020.62,0,0,0,0,0.027847
2020/03/27 01:45:00.000,n,118,3.24,1.44,4.68,21.6,69.5,1020.62,0,0,0,0,0.02697
2020/03/27 01:46:00.000,n,148,4.32,3.96,5.4,21.6,69.6,1020.62,0,0,0,0,0.029564
2020/03/27 01:47:00.014,n,150,4.32,4.32,4.68,21.6,69.7,1020.62,0,0,0,0,0.02697
2020/03/27 01:48:00.012,n,154,3.96,2.88,4.68,21.5,69.7,1020.62,0,0,0,0,0.028725
2020/03/27 01:49:00.000,n,158,6.84,5.4,7.92,21.5,69.8,1020.62,0,0,0,0,0.027847
2020/03/27 01:50:00.000,n,140,6.12,5.4,6.48,21.5,70,1020.62,0,0,0,0,0.026131
2020/03/27 01:51:00.002,n,142,4.68,3.96,6.12,21.5,70,1020.62,0,0,0,0,0.028725
2020/03/27 01:52:00.001,n,159,5.04,4.68,5.4,21.5,69.9,1020.62,0,0,0,0,0.028725
2020/03/27 01:53:00.000,n,145,8.28,6.84,9.72,21.5,69.8,1020.62,0,0,0,0,0.027847
2020/03/27 01:54:00.000,n,142,10.08,9,10.8,21.5,69.6,1020.62,0,0,0,0,0.028725
2020/03/27 01:55:00.009,n,145,4.68,4.32,5.04,21.5,69.6,1020.62,0,0,0,0,0.032196
2020/03/27 01:56:00.007,n,137,3.96,2.52,5.4,21.5,70,1020.62,0,0,0,0,0.028725
2020/03/27 01:57:00.004,n,148,7.92,6.84,9.36,21.5,69.8,1020.52,0,0,0,0,0.02697
2020/03/27 01:58:00.001,n,157,9.36,7.2,12.24,21.5,69.4,1020.52,0,0,0,0,0.027847
2020/03/27 01:59:00.000,n,168,5.76,5.04,6.84,21.5,69.5,1020.52,0,0,0,0,0.02697
2020/03/27 02:00:00.000,n,95,9.36,8.64,10.08,21.5,69.4,1020.52,0,0,0,0,0.02697
2020/03/27 02:01:00.000,n,161,10.440002,9.72,11.16,21.5,69.3,1020.52,0,0,0,0,0.026131
2020/03/27 02:02:00.006,n,144,6.84,6.12,7.2,21.5,69.5,1020.52,0,0,0,0,0.029564
2020/03/27 02:03:00.009,n,128,1.8,0.72,2.52,21.5,69.5,1020.52,0,0,0,0,0.027847
2020/03/27 02:04:00.007,n,183,4.32,3.24,4.68,21.5,69.7,1020.52,0,0,0,0,0.02697
2020/03/27 02:05:00.003,n,153,7.56,6.84,8.28,21.5,69.6,1020.52,0,0,0,0,0.028725
2020/03/27 02:06:00.001,n,176,4.68,3.96,5.04,21.5,69.6,1020.52,0,0,0,0,0.030479
2020/03/27 02:07:00.000,n,148,9,8.28,10.08,21.5,69.5,1020.42,0,0,0,0,0.027847
2020/03/27 02:08:00.000,n,119,4.32,2.88,5.04,21.5,69.4,1020.42,0,0,0,0,0.032196
2020/03/27 02:09:00.000,n,65,3.24,2.16,5.04,21.5,69.6,1020.42,0,0,0,0,0.027847
2020/03/27 02:10:00.007,n,153,17.64,14.76,20.519998,21.5,69.3,1020.42,0,0,0,0,0.028725
2020/03/27 02:11:00.005,n,179,6.12,5.04,6.84,21.5,69.4,1020.42,0,0,0,0,0.029564
2020/03/27 02:12:00.002,n,95,4.32,3.24,6.12,21.5,69.7,1020.42,0,0,0,0,0.025253
2020/03/27 02:13:00.000,n,186,6.48,5.4,7.2,21.5,69.6,1020.42,0,0,0,0,0.029564
2020/03/27 02:14:00.013,n,172,2.52,2.16,2.52,21.5,69.6,1020.42,0,0,0,0,0.029564
2020/03/27 02:15:00.012,n,219,2.88,2.52,3.6,21.5,69.6,1020.32,0,0,0,0,0.025253
2020/03/27 02:16:00.000,n,93,3.6,3.24,3.6,21.5,69.6,1020.32,0,0,0,0,0.027847
2020/03/27 02:17:00.000,n,130,9.72,9.36,10.440002,21.5,69.7,1020.32,0,0,0,0,0.029564
2020/03/27 02:18:00.003,n,112,2.16,1.44,3.24,21.5,70,1020.32,0,0,0,0,0.02697
2020/03/27 02:19:00.000,n,143,4.32,1.8,7.92,21.5,69.8,1020.32,0,0,0,0,0.030479
2020/03/27 02:20:00.000,n,150,7.56,6.84,8.28,21.4,69.5,1020.22,0,0,0,0,0.029564
2020/03/27 02:21:00.000,n,157,12.24,8.64,14.4,21.4,69.5,1020.22,0,0,0,0,0.028725
2020/03/27 02:22:00.010,n,158,10.08,9.36,11.16,21.4,69.5,1020.22,0,0,0,0,0.032196
2020/03/27 02:23:00.008,n,141,13.32,11.88,14.4,21.4,69.4,1020.22,0,0,0,0,0.027847
2020/03/27 02:24:00.006,n,100,3.96,3.24,4.68,21.4,69.8,1020.22,0,0,0,0,0.028725
2020/03/27 02:25:00.000,n,130,9,7.92,9.72,21.4,69.6,1020.22,0,0,0,0,0.02697
2020/03/27 02:26:00.000,n,152,4.68,3.96,5.76,21.4,69.6,1020.22,0,0,0,0,0.030479
2020/03/27 02:27:00.000,n,149,3.96,3.24,4.32,21.3,69.8,1020.22,0,0,0,0,0.024376
2020/03/27 02:28:00.000,n,131,5.04,3.24,6.12,21.3,69.9,1020.12,0,0,0,0,0.024376
2020/03/27 02:29:00.000,n,155,9,8.28,9.36,21.3,70,1020.12,0,0,0,0,0.026131
2020/03/27 02:30:00.000,n,175,9.36,8.28,9.72,21.3,70.1,1020.22,0,0,0,0,0.025253
2020/03/27 02:31:00.011,n,151,6.12,5.76,6.12,21.3,70.2,1020.22,0,0,0,0,0.023499
2020/03/27 02:32:00.009,n,139,9,8.64,9.72,21.3,70.3,1020.12,0,0,0,0,0.026131
2020/03/27 02:33:00.006,n,155,5.04,4.68,6.12,21.3,70.4,1020.12,0,0,0,0,0.028725
2020/03/27 02:34:00.000,n,160,2.16,1.08,3.96,21.2,70.6,1020.12,0,0,0,0,0.025253
2020/03/27 02:35:00.001,n,175,7.92,6.48,9.36,21.2,70.7,1020.12,0,0,0,0,0.025253
2020/03/27 02:36:00.001,n,158,6.84,6.12,7.2,21.2,70.7,1020.12,0,0,0,0,0.023499
2020/03/27 02:37:00.000,n,210,3.24,2.88,3.96,21.2,70.8,1020.12,0,0,0,0,0.022621
2020/03/27 02:38:00.000,n,162,5.76,4.68,6.12,21.2,70.9,1020.12,0,0,0,0,0.027847
2020/03/27 02:39:00.009,n,173,5.76,5.04,6.12,21.2,71,1020.12,0,0,0,0,0.024376
2020/03/27 02:40:00.006,n,155,4.68,4.32,5.4,21.2,71.3,1020.12,0,0,0,0,0.021782
2020/03/27 02:41:00.005,n,164,3.24,2.52,3.96,21.2,71.5,1020.12,0,0,0,0,0.023499
2020/03/27 02:42:00.002,n,182,5.04,4.68,5.04,21.1,71.7,1020.12,0,0,0,0,0.023499
2020/03/27 02:43:00.001,n,179,6.84,5.76,8.64,21.1,72,1020.12,0,0,0,0,0.021782
2020/03/27 02:44:00.000,n,185,2.88,0.72,3.6,21.1,72.1,1020.12,0,0,0,0,0.022621
2020/03/27 02:45:00.000,n,160,7.56,6.48,9,21.1,72.2,1020.12,0,0,0,0,0.023499
2020/03/27 02:46:00.000,n,184,4.68,4.32,5.04,21.1,72.4,1020.02,0,0,0,0,0.027847
2020/03/27 02:47:00.002,n,177,2.52,1.8,3.24,21,72.6,1020.02,0,0,0,0,0.027847
2020/03/27 02:48:00.000,n,197,4.68,3.96,5.04,21,72.7,1020.02,0,0,0,0,0.030479
2020/03/27 02:49:00.000,n,160,5.4,5.04,6.12,21,72.7,1020.02,0,0,0,0,0.027847
2020/03/27 02:50:00.010,n,169,8.28,7.56,8.64,21,72.8,1020.02,0,0,0,0,0.029602
2020/03/27 02:51:00.007,n,167,3.6,2.16,4.68,20.9,72.9,1020.02,0,0,0,0,0.031319
2020/03/27 02:52:00.000,n,185,5.76,4.32,6.48,20.9,73,1020.02,0,0,0,0,0.02697
2020/03/27 02:53:00.000,n,193,9.36,8.28,10.440002,20.9,72.9,1020.02,0,0,0,0,0.022621
2020/03/27 02:54:00.003,n,215,3.24,2.88,3.6,20.9,73.1,1020.02,0,0,0,0,0.022621
2020/03/27 02:55:00.001,n,212,6.12,5.04,6.84,20.9,73,1020.02,0,0,0,0,0.029602
2020/03/27 02:56:00.000,n,213,6.12,5.04,8.64,20.9,73.1,1019.92,0,0,0,0,0.02697
2020/03/27 02:57:00.000,n,205,5.04,3.96,6.12,20.8,73.1,1019.92,0,0,0,0,0.025253
2020/03/27 02:58:00.000,n,195,6.84,5.76,7.92,20.8,73.1,1019.92,0,0,0,0,0.028725
2020/03/27 02:59:00.010,n,222,3.96,3.24,4.32,20.8,73.2,1019.92,0,0,0,0,0.025253
2020/03/27 03:00:00.007,n,185,5.76,1.08,7.92,20.8,73.2,1019.92,0,0,0,0,0.01915
2020/03/27 03:01:00.000,n,170,5.4,3.96,6.48,20.8,73.3,1019.92,0,0,0,0,0.024338
2020/03/27 03:02:00.002,n,175,8.28,7.56,9.36,20.8,73.1,1019.92,0,0,0,0,0.024338
2020/03/27 03:03:00.000,n,178,4.68,4.32,5.04,20.7,73.1,1019.92,0,0,0,0,0.021744
2020/03/27 03:04:00.000,n,195,9,7.92,9.72,20.7,73.2,1020.02,0,0,0,0,0.020905
2020/03/27 03:05:00.000,n,165,5.76,5.04,6.12,20.7,73.5,1019.92,0,0,0,0,0.021744
2020/03/27 03:06:00.009,n,189,7.92,7.2,9.72,20.7,73.2,1019.92,0,0,0,0,0.020905
2020/03/27 03:07:00.007,n,198,10.440002,9.36,11.88,20.7,73.1,1019.92,0,0,0,0,0.020027
2020/03/27 03:08:00.004,n,154,5.04,0.72,7.56,20.7,73.1,1020.02,0,0,0,0,0.022621
2020/03/27 03:09:00.003,n,183,4.68,2.16,6.12,20.6,73.3,1019.92,0,0,0,0,0.020905
2020/03/27 03:10:00.000,n,71,3.24,0,6.48,20.6,73.4,1019.92,0,0,0,0,0.035706
2020/03/27 03:11:00.000,n,185,14.76,13.32,16.2,20.6,73.2,1019.92,0,0,0,0,0.032196
2020/03/27 03:12:00.000,n,194,12.24,11.52,12.96,20.6,73.3,1019.92,0,0,0,0,0.033073
2020/03/27 03:13:00.001,n,195,7.2,6.48,7.92,20.6,73.3,1019.92,0,0,0,0,0.030479
2020/03/27 03:14:00.000,n,189,8.64,7.56,10.440002,20.6,73.3,1019.92,0,0,0,0,0.02697
2020/03/27 03:15:00.000,n,147,4.68,3.6,7.56,20.6,73.4,1019.92,0,0,0,0,0.032196
2020/03/27 03:16:00.009,n,178,5.76,4.68,6.84,20.6,73.4,1019.92,0,0,0,0,0.029602
2020/03/27 03:17:00.006,n,204,6.12,5.4,7.2,20.6,73.6,1019.92,0,0,0,0,0.029602
2020/03/27 03:18:00.004,n,173,2.16,2.16,2.88,20.6,73.6,1019.92,0,0,0,0,0.029602
2020/03/27 03:19:00.001,n,185,3.24,1.08,5.04,20.5,73.6,1019.92,0,0,0,0,0.029602
2020/03/27 03:20:00.000,n,184,7.92,6.84,9,20.5,73.7,1019.92,0,0,0,0,0.026131
2020/03/27 03:21:00.000,n,154,6.48,5.4,6.84,20.5,73.8,1019.92,0,0,0,0,0.025253
2020/03/27 03:22:00.000,n,211,2.88,2.52,3.24,20.5,73.9,1019.92,0,0,0,0,0.02697
2020/03/27 03:23:00.006,n,176,6.48,5.4,7.2,20.5,74,1019.92,0,0,0,0,0.024376
2020/03/27 03:24:00.008,n,202,4.68,3.96,5.4,20.5,74.1,1019.92,0,0,0,0,0.028725
2020/03/27 03:25:00.005,n,184,8.28,6.48,10.08,20.5,73.8,1019.92,0,0,0,0,0.02697
2020/03/27 03:26:00.010,n,173,5.76,5.4,6.48,20.4,73.9,1019.92,0,0,0,0,0.026131
2020/03/27 03:27:00.008,n,203,2.52,2.16,3.6,20.4,74,1019.92,0,0,0,0,0.022621
2020/03/27 03:28:00.000,n,202,2.88,2.52,2.88,20.4,74.1,1019.92,0,0,0,0,0.022621
2020/03/27 03:29:00.002,n,279,2.52,2.16,2.88,20.4,74,1019.92,0,0,0,0,0.026131
2020/03/27 03:30:00.000,n,183,6.48,6.12,6.84,20.4,74.1,1019.92,0,0,0,0,0.022621
2020/03/27 03:31:00.000,n,182,7.2,6.84,8.28,20.4,74.1,1019.92,0,0,0,0,0.021744
2020/03/27 03:32:00.000,n,205,6.84,4.68,8.64,20.4,74,1019.92,0,0,0,0,0.022621
2020/03/27 03:33:00.007,n,227,5.4,4.32,6.48,20.4,74,1020.02,0,0,0,0,0.020027
2020/03/27 03:34:00.005,n,178,1.08,0.72,1.8,20.4,74.1,1020.02,0,0,0,0,0.021744
2020/03/27 03:35:00.002,n,289,2.52,2.16,2.88,20.4,74.3,1020.02,0,0,0,0,0.020027
2020/03/27 03:36:00.000,n,154,4.68,4.68,5.4,20.4,74.3,1020.02,0,0,0,0,0.020905
2020/03/27 03:37:00.000,n,188,5.76,5.04,6.12,20.4,74.2,1020.02,0,0,0,0,0.028725
2020/03/27 03:38:00.000,n,154,7.2,6.12,7.92,20.4,74.2,1020.02,0,0,0,0,0.020027
2020/03/27 03:39:00.000,n,270,3.96,3.24,5.04,20.4,74.1,1020.02,0,0,0,0,0.025253
2020/03/27 03:40:00.006,n,144,2.52,1.08,3.24,20.4,74.1,1020.02,0,0,0,0,0.031357
2020/03/27 03:41:00.003,n,165,5.04,3.96,5.76,20.4,74,1020.02,0,0,0,0,0.036583
2020/03/27 03:42:00.000,n,189,3.96,3.6,4.32,20.4,74.1,1020.02,0,0,0,0,0.039177
2020/03/27 03:43:00.000,n,171,3.96,1.44,5.76,20.4,74,1020.02,0,0,0,0,0.031357
2020/03/27 03:44:00.012,n,174,1.8,1.08,2.88,20.4,74,1020.02,0,0,0,0,0.034828
2020/03/27 03:45:00.009,n,190,1.08,0.36,2.16,20.4,74,1020.02,0,0,0,0,0.034828
2020/03/27 03:46:00.000,n,162,9,8.28,9.72,20.4,73.9,1020.02,0,0,0,0,0.031357
2020/03/27 03:47:00.000,n,186,2.52,2.16,3.24,20.4,74,1020.02,0,0,0,0,0.034828
2020/03/27 03:48:00.005,n,203,6.84,6.12,8.28,20.4,74,1020.02,0,0,0,0,0.0383
2020/03/27 03:49:00.002,n,214,4.32,2.16,5.76,20.4,74,1020.02,0,0,0,0,0.035667
2020/03/27 03:50:00.000,n,160,3.6,1.44,5.76,20.4,73.9,1020.02,0,0,0,0,0.039177
2020/03/27 03:51:00.000,n,155,6.48,5.04,7.2,20.4,74,1020.02,0,0,0,0,0.034828
2020/03/27 03:52:00.010,n,223,4.68,4.32,5.4,20.4,74.1,1020.02,0,0,0,0,0.034828
2020/03/27 03:53:00.008,n,281,4.68,4.32,5.04,20.4,74.8,1020.02,0,0,0,0,0.033951
2020/03/27 03:54:00.006,n,267,4.32,1.8,5.04,20.5,74.8,1020.02,0,0,0,0,0.033073
2020/03/27 03:55:00.000,n,269,3.24,2.16,5.4,20.5,74.5,1020.12,0,0,0,0,0.032234
2020/03/27 03:56:00.000,n,255,4.32,2.88,5.76,20.5,74.4,1020.12,0,0,0,0,0.034828
2020/03/27 03:57:00.000,n,253,1.44,1.44,2.16,20.4,74.4,1020.12,0,0,0,0,0.034828
2020/03/27 03:58:00.000,n,216,1.08,0.36,1.44,20.4,74.8,1020.12,0,0,0,0,0.03746
2020/03/27 03:59:00.000,n,229,2.16,1.08,3.24,20.5,74.6,1020.12,0,0,0,0,0.036583
2020/03/27 04:00:00.006,n,164,6.12,5.76,6.48,20.4,74.4,1020.12,0,0,0,0,0.036583
2020/03/27 04:01:00.003,n,206,1.44,0.36,2.16,20.4,74.4,1020.12,0,0,0,0,0.033951
2020/03/27 04:02:00.000,n,164,8.64,8.28,9.36,20.4,74.1,1020.12,0,0,0,0,0.041809
2020/03/27 04:03:00.015,n,197,5.04,3.6,6.12,20.3,73.9,1020.22,0,0,0,0,0.036583
2020/03/27 04:04:00.000,n,183,7.92,7.2,9,20.3,73.9,1020.22,0,0,0,0,0.03746
2020/03/27 04:05:00.000,n,225,6.12,3.6,7.92,20.3,74,1020.22,0,0,0,0,0.036583
2020/03/27 04:06:00.000,n,207,3.6,2.88,5.04,20.3,74.1,1020.22,0,0,0,0,0.036583
2020/03/27 04:07:00.000,n,192,2.88,2.52,3.24,20.3,74.1,1020.22,0,0,0,0,0.033073
2020/03/27 04:08:00.001,n,191,6.12,5.4,6.84,20.3,74.1,1020.22,0,0,0,0,0.033951
2020/03/27 04:09:00.000,n,301,3.6,2.52,4.68,20.3,74.2,1020.22,0,0,0,0,0.033951
2020/03/27 04:10:00.000,n,256,1.8,0.72,2.52,20.3,73.9,1020.22,0,0,0,0,0.036583
2020/03/27 04:11:00.000,n,177,5.04,4.68,5.4,20.3,74,1020.32,0,0,0,0,0.034828
2020/03/27 04:12:00.000,n,226,5.76,5.4,6.12,20.3,74,1020.32,0,0,0,0,0.036583
2020/03/27 04:13:00.000,n,219,10.440002,9.72,11.16,20.3,73.8,1020.32,0,0,0,0,0.034828
2020/03/27 04:14:00.000,n,171,10.440002,7.56,14.04,20.3,73.9,1020.32,0,0,0,0,0.035667
2020/03/27 04:15:00.000,n,167,12.96,11.16,13.68,20.3,73.6,1020.22,0,0,0,0,0.033951
2020/03/27 04:16:00.000,n,185,10.8,7.56,14.4,20.2,73.6,1020.32,0,0,0,0,0.035667
2020/03/27 04:17:00.005,n,169,6.12,2.88,9,20.2,73.5,1020.32,0,0,0,0,0.034828
2020/03/27 04:18:00.003,n,203,4.32,2.16,6.12,20.2,73.7,1020.32,0,0,0,0,0.033951
2020/03/27 04:19:00.005,n,182,10.8,9.36,11.52,20.2,73.7,1020.32,0,0,0,0,0.032234
2020/03/27 04:20:00.002,n,193,8.28,6.48,11.16,20.2,73.4,1020.32,0,0,0,0,0.034828
2020/03/27 04:21:00.015,n,191,10.440002,9.72,11.88,20.2,73.6,1020.32,0,0,0,0,0.032234
2020/03/27 04:22:00.000,n,181,6.12,4.32,7.56,20.2,73.6,1020.32,0,0,0,0,0.035667
2020/03/27 04:23:00.000,n,164,11.52,9.72,14.4,20.1,73.6,1020.32,0,0,0,0,0.033951
2020/03/27 04:24:00.000,n,188,9,8.28,10.08,20.1,73.6,1020.22,0,0,0,0,0.032234
2020/03/27 04:25:00.005,n,194,8.28,5.04,10.08,20.1,73.7,1020.22,0,0,0,0,0.032234
2020/03/27 04:26:00.002,n,159,2.88,0.72,4.68,20.1,73.7,1020.32,0,0,0,0,0.033073
2020/03/27 04:27:00.000,n,143,9,7.2,10.440002,20.1,73.7,1020.32,0,0,0,0,0.032234
2020/03/27 04:28:00.000,n,185,6.84,6.48,7.2,20.1,73.7,1020.32,0,0,0,0,0.032234
2020/03/27 04:29:00.010,n,197,5.4,3.96,7.2,20.1,73.9,1020.32,0,0,0,0,0.031357
2020/03/27 04:30:00.007,n,180,3.24,2.52,3.6,20.1,73.9,1020.32,0,0,0,0,0.027008
2020/03/27 04:31:00.000,n,143,3.24,3.24,3.6,20.1,73.9,1020.32,0,0,0,0,0.024376
2020/03/27 04:32:00.001,n,176,3.24,2.88,3.24,20.1,74,1020.42,0,0,0,0,0.032234
2020/03/27 04:33:00.000,n,172,2.88,2.16,4.32,20,74.1,1020.42,0,0,0,0,0.030441
2020/03/27 04:34:00.000,n,143,9,3.24,11.52,20,73.8,1020.42,0,0,0,0,0.029602
2020/03/27 04:35:00.000,n,216,7.56,6.12,8.28,20,74,1020.42,0,0,0,0,0.029602
2020/03/27 04:36:00.009,n,185,9.72,7.92,11.88,20,74,1020.42,0,0,0,0,0.027008
2020/03/27 04:37:00.006,n,196,7.92,7.2,9,20,73.9,1020.42,0,0,0,0,0.022659
2020/03/27 04:38:00.004,n,177,11.16,10.440002,12.96,20,73.8,1020.42,0,0,0,0,0.027008
2020/03/27 04:39:00.001,n,168,5.04,4.32,5.76,19.9,73.9,1020.42,0,0,0,0,0.029602
2020/03/27 04:40:00.001,n,184,15.84,15.12,17.28,19.9,73.8,1020.42,0,0,0,0,0.024376
2020/03/27 04:41:00.000,n,170,7.92,6.84,9,19.9,74,1020.52,0,0,0,0,0.026131
2020/03/27 04:42:00.000,n,149,3.24,1.8,4.68,19.9,74.1,1020.52,0,0,0,0,0.024376
2020/03/27 04:43:00.000,n,178,3.6,2.88,5.04,19.9,74.1,1020.52,0,0,0,0,0.032196
2020/03/27 04:44:00.002,n,102,2.16,1.8,2.52,19.9,74.2,1020.52,0,0,0,0,0.033035
2020/03/27 04:45:00.002,n,253,4.68,3.96,5.4,19.9,74.2,1020.52,0,0,0,0,0.033035
2020/03/27 04:46:00.000,n,203,2.52,2.16,3.24,19.9,74.3,1020.52,0,0,0,0,0.030441
2020/03/27 04:47:00.000,n,212,5.04,4.32,5.04,19.9,74.4,1020.52,0,0,0,0,0.035667
2020/03/27 04:48:00.012,n,149,2.16,1.44,3.24,19.8,74.4,1020.52,0,0,0,0,0.032196
2020/03/27 04:49:00.000,n,203,11.16,9,11.88,19.8,74.2,1020.52,0,0,0,0,0.031319
2020/03/27 04:50:00.000,n,190,10.440002,7.92,11.52,19.8,74.1,1020.52,0,0,0,0,0.033035
2020/03/27 04:51:00.005,n,189,4.68,2.16,5.76,19.8,74.1,1020.52,0,0,0,0,0.035667
2020/03/27 04:52:00.002,n,175,7.56,5.4,9,19.8,74.2,1020.52,0,0,0,0,0.035667
2020/03/27 04:53:00.000,n,223,7.56,6.12,9.36,19.8,74.1,1020.52,0,0,0,0,0.030441
2020/03/27 04:54:00.000,n,171,5.76,4.68,6.48,19.8,74.1,1020.52,0,0,0,0,0.033035